CAPE
992 2082 1941 2106 1923 1788 1828 1738 1606 1600 1715 1684 1502 1579 1682 1630 1624 1760 1817 1700 1458 1143 1025 1024 1158 1037 900 1030 1202 1129 849 840 924 855 922 974 868 893 1014 1243 1126 1120 1047 1109 990 1045 1028 1186 1287 1086 952 884 835 810 712 445 270 224 298 514 322 126 82 58 35 112 238 154 121 86 50 54 44 84 32 10 12 51 46 0 0 1 1 3 4
1166 1977 1938 1982 2008 1750 1690 1698 1550 1538 1645 1556 1506 1433 1530 1518 1492 1462 1521 1658 1549 1144 980 930 896 956 930 892 1058 1121 867 846 828 825 775 894 878 831 988 1155 1233 1004 1092 1224 1186 1294 1258 1227 1206 1077 892 762 764 614 490 304 335 294 238 184 125 122 69 60 324 448 347 160 160 165 119 68 39 20 19 27 2 0 0 0 0 0 1 4 3
1802 1964 1865 1956 1973 1686 1697 1444 1406 1380 1522 1466 1440 1404 1318 1210 1149 1134 1079 1105 1192 1194 1018 829 778 815 930 782 1026 1041 894 797 894 913 941 872 889 805 820 948 1006 1148 1034 1171 1480 1342 1327 1264 1296 965 677 604 614 619 453 287 291 310 321 194 122 98 103 213 326 366 326 251 178 106 88 29 9 10 8 3 3 0 1 0 0 0 0 0 0
1759 1919 1828 1925 1888 1660 1588 1316 1291 1382 1456 1462 1347 1197 1026 915 806 671 651 596 621 850 778 729 759 760 783 750 855 860 776 845 918 792 865 848 889 769 826 882 928 988 968 1129 1261 1271 1173 1434 1096 806 682 566 511 532 448 370 357 370 400 339 180 155 139 251 330 371 297 244 177 43 14 4 7 6 8 6 0 0 0 0 0 0 0 1 0
2024 1906 1705 1720 1718 1597 1528 1336 1281 1322 1526 1377 1264 1072 870 716 529 390 339 336 271 332 550 537 869 694 688 649 787 726 708 716 618 736 748 712 632 780 820 855 960 880 878 1109 1095 1092 1145 1136 930 814 660 554 415 502 574 450 415 450 454 400 397 374 306 351 452 348 273 237 113 5 0 0 1 4 6 10 10 2 4 1 0 0 0 1 1
1607 1821 1793 1544 1505 1489 1548 1338 1324 1316 1438 1345 1126 906 707 565 481 354 249 262 198 171 291 434 604 694 681 686 756 686 690 606 600 729 739 764 550 676 749 774 1094 958 992 1055 1049 1049 1151 1090 926 783 662 508 529 483 520 464 499 512 461 442 462 426 552 588 558 382 297 265 251 7 8 4 10 16 6 8 21 11 10 0 0 0 0 0 0
1639 1838 1705 1532 1514 1404 1538 1412 1330 1268 1368 1188 933 712 616 564 452 394 254 200 184 177 169 195 260 704 660 582 716 644 618 652 671 752 766 780 572 556 674 704 1050 850 988 1002 1160 968 947 953 942 727 623 420 592 514 522 587 524 468 444 482 536 501 590 560 374 326 334 284 126 8 23 37 36 24 30 5 3 4 3 22 27 4 0 0 0
419 1692 1709 1506 1433 1450 1527 1356 1334 1303 1309 1091 881 709 648 564 479 387 244 168 151 190 219 221 328 548 586 478 690 560 543 692 725 686 736 642 496 602 590 797 859 897 988 934 1024 1038 936 959 671 660 522 322 420 474 534 588 515 424 482 480 406 520 472 462 273 294 192 127 161 2 6 8 6 14 82 94 11 2 2 7 12 0 0 0 0
540 1491 1561 1475 1339 1480 1461 1382 1415 1437 1294 1031 854 828 710 612 525 400 352 267 231 268 246 458 601 532 463 457 643 559 514 659 456 658 608 482 414 452 501 644 832 774 801 1016 1139 1079 902 875 638 554 412 368 384 413 514 476 426 384 465 385 440 388 384 186 127 120 162 17 3 3 12 9 13 52 122 108 74 13 6 6 18 0 3 2 0
437 1438 1467 1295 1436 1452 1344 1369 1495 1476 1328 1142 1010 868 758 715 523 504 488 440 396 356 761 742 738 643 519 486 518 576 404 612 580 504 496 430 415 370 560 625 812 814 875 910 1020 1018 1069 772 547 464 388 392 332 346 357 390 357 347 424 355 338 331 242 147 121 80 10 2 240 255 174 147 58 92 147 96 48 6 0 0 0 10 9 0 0
384 646 1236 1254 1493 1273 1252 1338 1505 1566 1167 1156 1088 914 706 516 564 485 540 519 481 414 456 807 677 713 693 608 691 579 518 350 541 538 407 446 381 406 534 703 796 1020 972 849 845 866 1004 788 509 500 447 412 343 323 290 337 338 340 357 316 273 272 175 76 34 13 12 38 84 241 398 261 106 115 155 107 71 117 227 76 6 0 4 4 7
494 614 992 1088 1580 1211 1185 1236 1438 1542 1327 1171 1102 920 607 537 422 420 410 416 458 464 374 503 678 644 660 640 801 656 487 467 568 514 470 408 380 334 586 758 749 978 892 712 575 765 720 848 552 480 454 349 315 291 308 348 300 260 280 194 208 228 70 42 24 4 13 19 78 144 197 148 118 186 172 109 43 60 39 23 27 29 26 18 10
660 567 1066 1494 1295 1154 889 1088 1264 1388 1364 1201 1032 832 827 783 738 608 542 410 412 435 430 417 395 406 340 428 428 562 458 459 626 520 406 294 300 358 458 679 758 981 833 654 666 754 763 737 558 495 371 320 264 225 256 303 253 246 236 187 174 96 36 18 22 11 22 18 52 102 125 96 30 98 48 47 42 52 76 94 95 50 33 34 30
633 626 634 1188 1151 1123 794 830 1199 1214 1066 1023 977 897 885 1041 887 804 839 699 443 368 465 529 483 365 280 296 399 515 351 447 397 637 389 280 302 305 406 586 726 940 838 737 697 778 673 703 540 453 336 284 229 219 225 256 236 198 192 170 145 42 31 12 31 7 58 103 130 55 72 56 36 78 67 40 43 95 114 73 93 36 32 26 26
686 460 550 816 982 867 731 757 1090 1056 899 854 849 818 939 1087 943 945 966 844 677 422 442 486 453 392 356 416 395 375 395 330 413 547 446 372 254 329 287 527 796 905 897 805 700 810 826 723 545 410 367 339 290 283 260 267 228 202 199 169 140 46 19 0 2 30 84 148 86 222 73 53 198 120 95 54 92 113 114 63 75 36 28 23 28
527 239 418 781 856 922 754 772 979 908 767 651 618 670 958 1065 1016 1108 1050 967 822 673 593 500 380 283 372 338 425 399 343 343 362 342 389 386 487 501 543 707 864 918 823 846 608 860 836 673 590 567 556 526 403 339 310 292 250 229 208 151 33 15 4 0 7 6 70 91 55 141 68 77 178 99 92 106 115 112 71 118 100 67 24 30 25
502 525 541 790 935 942 845 754 850 854 625 469 516 563 852 1036 928 1106 1077 1038 980 908 812 629 376 250 275 242 210 234 332 330 346 353 340 341 402 490 542 725 991 844 887 601 546 810 751 626 580 528 486 435 392 320 290 259 236 234 210 75 11 4 1 0 21 24 30 96 48 143 90 98 142 137 114 110 149 134 108 144 121 104 40 46 55
538 404 752 665 676 612 694 551 710 621 582 446 495 514 781 885 834 985 1002 1011 984 839 704 571 433 234 208 189 158 178 214 257 244 313 272 261 292 412 586 815 979 988 821 454 610 811 716 624 518 484 431 388 335 330 294 251 315 288 157 68 12 6 10 20 70 110 84 216 92 108 90 172 167 154 180 150 132 188 151 172 137 127 128 84 65
520 388 674 482 740 613 707 556 688 565 620 494 468 524 687 788 756 892 850 894 844 701 552 481 410 205 194 190 188 222 248 271 311 328 286 307 324 426 570 754 1015 954 737 659 583 770 768 712 654 570 522 402 412 366 328 294 206 128 96 39 0 12 14 45 99 146 192 90 83 143 159 254 209 184 155 151 185 178 122 162 128 138 114 88 51
387 394 513 576 546 723 736 512 592 482 563 681 630 479 562 710 765 798 778 807 768 624 531 465 360 172 146 162 264 334 276 381 430 341 310 360 420 460 579 705 846 712 526 516 650 863 874 862 850 791 592 449 434 409 283 176 86 66 48 26 14 17 24 49 142 171 109 148 70 145 444 396 308 293 278 202 201 234 176 166 204 118 119 118 108
399 403 249 290 497 521 774 470 553 419 500 604 623 528 450 676 706 750 750 706 696 569 546 453 360 204 58 103 268 302 299 326 396 330 354 375 406 495 596 711 712 564 525 540 539 594 812 909 907 802 650 508 417 301 127 62 54 31 18 11 19 25 36 78 142 158 198 123 178 385 600 367 329 458 324 191 186 246 134 165 216 100 148 141 73
283 302 196 210 375 546 601 510 481 473 577 601 494 415 483 544 670 702 694 606 597 520 501 441 318 294 88 171 212 260 226 288 318 350 337 386 412 511 619 680 638 475 475 482 362 601 815 807 760 551 564 473 272 146 67 15 6 10 9 12 9 21 32 69 76 180 205 140 87 468 592 445 379 348 254 156 199 254 184 204 153 114 130 106 64
202 147 153 195 218 414 457 545 620 543 550 538 447 652 484 445 694 638 596 532 508 455 490 440 402 332 245 244 236 193 203 266 328 302 354 404 426 567 611 615 696 487 584 465 446 489 657 632 508 350 391 229 151 89 65 53 59 70 20 0 8 14 17 28 70 106 177 144 186 190 426 387 356 400 328 168 158 145 204 153 100 147 87 78 54
88 90 26 77 148 204 311 349 399 492 507 541 423 601 777 414 507 657 629 499 471 470 489 467 367 240 294 207 206 130 216 257 252 369 238 436 445 568 585 614 605 569 528 437 378 327 430 339 337 181 148 90 72 95 66 83 70 106 90 14 4 12 18 39 96 173 165 121 160 146 214 325 292 253 276 167 166 126 117 101 78 120 34 36 43
3 25 50 78 51 134 207 294 320 422 396 502 438 613 586 622 427 373 506 490 438 477 476 419 292 130 222 167 102 56 159 214 222 289 260 232 389 310 529 527 507 576 431 368 421 346 303 262 340 163 205 212 82 60 37 32 45 62 47 30 60 57 127 125 104 134 123 65 55 98 212 343 316 282 284 213 127 109 105 80 101 33 22 20 32
0 10 0 3 78 81 164 197 299 396 368 467 447 559 388 532 316 237 274 330 339 363 389 363 262 94 160 122 133 23 130 90 310 291 223 206 268 156 399 441 429 417 338 362 265 226 317 189 168 148 209 162 111 43 52 30 7 2 13 22 22 64 72 75 59 66 63 65 29 89 93 194 217 240 235 178 108 94 84 33 56 31 22 14 11
13 5 16 7 9 6 65 56 272 368 398 402 382 478 479 425 457 423 196 27 98 202 233 247 286 188 121 147 120 63 3 42 257 245 138 91 159 180 222 242 227 242 318 323 297 296 250 212 166 170 162 182 131 24 27 64 62 38 24 17 17 10 10 20 28 31 37 14 2 60 1 13 85 136 104 108 122 109 108 81 44 40 24 20 18
0 0 2 15 8 1 23 2 149 215 334 365 395 414 388 467 394 418 324 206 2 9 53 36 199 250 143 98 96 34 5 0 154 174 127 1 0 0 42 0 81 73 63 0 42 222 194 198 183 132 200 140 116 104 98 88 78 56 45 30 11 0 0 5 13 15 9 0 10 10 0 0 8 46 26 40 43 50 40 48 48 43 51 51 33
0 1 0 0 10 11 12 68 64 131 187 209 318 342 377 305 402 424 374 339 164 0 0 27 86 177 147 157 0 0 0 1 18 13 64 0 0 0 0 0 0 0 0 12 0 93 114 116 86 53 40 85 92 113 135 88 52 20 20 4 3 5 7 4 9 8 4 10 17 16 5 0 0 3 12 6 11 16 14 17 22 21 16 17 20
0 0 0 0 2 15 14 5 20 51 152 199 287 322 329 279 384 364 361 421 286 116 0 2 19 91 140 171 115 0 1 0 11 13 3 0 0 0 0 0 0 0 0 0 0 0 0 0 0 0 1 67 62 95 124 40 0 0 0 0 0 6 14 11 12 15 16 14 14 15 2 0 0 0 0 2 8 5 7 8 6 4 2 3 5
0 0 0 0 0 1 17 20 6 7 49 127 150 51 219 337 268 292 347 462 287 69 50 3 0 2 50 167 127 1 3 4 20 41 5 2 0 0 0 0 0 0 0 0 0 0 0 0 0 0 0 0 0 0 0 0 0 0 0 0 0 0 0 0 0 0 10 12 9 21 21 19 18 12 0 2 1 1 1 0 0 0 0 0 0
0 0 0 0 0 0 2 5 12 9 10 6 43 9 4 60 243 219 195 183 190 100 57 12 25 35 47 32 123 11 2 12 37 43 25 7 3 3 0 0 0 0 0 0 0 0 0 0 0 0 0 0 0 0 0 0 0 0 0 0 0 0 0 0 0 0 0 0 0 0 0 0 8 6 0 0 4 2 0 0 0 0 0 0 0
0 0 0 0 0 3 4 5 6 7 7 8 12 4 3 2 38 117 206 181 243 108 34 88 124 58 35 52 64 9 56 37 64 68 40 12 14 13 11 2 2 0 0 0 0 0 0 0 0 0 0 0 0 0 0 0 0 0 0 0 0 0 0 0 0 0 0 0 0 0 0 0 8 6 0 0 0 2 0 0 0 0 0 0 0
0 0 0 1 2 3 4 4 4 6 5 9 5 6 3 2 1 2 54 174 194 148 140 35 150 238 357 198 111 107 86 56 54 76 48 25 51 58 41 18 0 5 3 6 3 0 0 0 0 0 0 0 0 0 0 0 0 0 0 0 0 0 0 0 0 0 0 0 0 0 0 0 0 3 0 0 0 0 2 1 0 0 0 0 0
0 0 0 0 0 1 3 4 5 4 3 3 7 10 13 4 3 3 11 40 118 162 108 129 139 228 374 319 203 146 92 90 123 41 26 70 55 110 96 70 42 33 8 12 41 4 1 1 0 4 5 4 3 2 0 0 0 0 0 0 0 0 0 0 0 0 0 0 0 0 0 0 0 0 0 1 0 0 0 0 0 0 0 0 12
0 0 0 0 0 0 0 0 1 3 6 2 2 3 8 9 13 14 13 4 51 86 118 74 79 118 93 208 232 146 123 95 86 123 147 136 157 141 160 129 74 69 56 46 49 41 32 19 18 0 1 5 3 5 6 0 0 0 0 0 0 0 0 0 0 0 0 0 0 0 0 0 0 0 0 0 0 0 0 0 1 2 1 1 1
0 0 0 0 0 0 0 0 2 0 1 1 0 8 9 2 6 12 6 4 4 6 5 131 6 21 84 212 125 118 90 153 171 242 179 100 112 222 226 219 166 136 68 57 52 13 43 47 50 42 22 0 0 0 13 11 6 5 1 0 0 0 0 0 0 0 0 0 0 0 0 0 0 0 0 0 0 0 0 0 0 0 5 2 0
0 0 0 0 0 0 0 0 0 0 0 0 0 1 14 15 0 12 6 6 5 5 6 8 104 7 12 9 36 75 51 35 91 219 298 176 155 77 69 181 212 174 105 63 42 46 59 60 58 46 38 27 8 0 12 24 22 16 12 4 0 0 0 0 0 0 0 0 0 0 0 0 0 0 0 0 0 0 0 0 0 0 0 0 0
0 0 0 0 0 0 0 0 0 0 0 0 0 0 5 15 14 10 6 4 6 8 8 6 5 48 55 34 6 18 20 2 10 27 70 143 137 162 113 146 176 184 112 44 37 50 62 73 64 48 28 22 22 23 28 40 46 37 25 14 4 0 0 0 2 2 0 0 0 0 0 0 0 2 0 1 1 4 4 0 0 0 0 0 0
0 0 0 0 0 0 0 0 0 0 0 0 0 0 0 16 21 8 14 2 6 5 6 12 9 10 5 25 44 18 8 4 2 0 29 135 122 171 122 84 119 90 84 100 57 52 8 41 44 18 42 26 13 24 31 34 44 48 36 26 13 7 0 11 18 19 14 8 6 5 1 0 4 7 8 9 8 6 5 1 0 2 0 4 3
0 0 0 0 0 0 0 0 0 0 0 0 0 17 21 18 15 18 22 10 10 10 8 5 14 32 31 8 4 24 20 2 1 10 8 12 42 90 52 120 172 193 136 91 86 96 73 67 54 0 12 14 6 5 22 28 40 31 26 10 5 0 6 27 28 34 22 13 17 10 6 4 4 5 8 12 10 4 0 0 0 0 0 0 0
0 0 0 0 0 0 0 0 0 0 0 0 0 0 28 22 16 12 12 7 6 4 6 16 42 46 47 12 6 6 4 28 12 4 15 10 2 8 2 28 68 124 165 125 166 178 154 95 51 63 28 4 2 6 0 4 8 10 3 0 1 0 0 25 24 21 29 22 14 12 10 11 10 11 8 4 3 0 0 0 0 0 0 0 0
0 0 0 0 0 0 0 0 0 0 0 0 0 2 14 14 12 7 6 6 5 6 5 9 24 33 41 50 23 5 4 6 3 8 6 8 2 2 2 14 86 80 121 106 164 127 120 82 50 8 4 0 5 2 0 0 0 0 0 0 3 1 1 0 0 14 19 22 25 21 21 22 23 22 17 16 4 5 2 4 5 2 0 0 0
0 0 0 0 0 0 0 0 0 0 0 0 0 1 0 1 15 19 10 4 10 6 11 9 15 32 28 18 7 5 5 4 3 2 2 2 2 4 8 4 10 63 37 28 48 77 106 54 56 50 22 8 4 5 3 0 0 0 0 0 8 1 2 0 0 1 13 22 15 19 28 16 16 29 24 13 13 9 10 11 9 12 8 0 0
0 0 0 0 0 0 0 0 0 0 0 0 0 0 0 0 0 20 26 6 0 8 29 28 10 3 7 7 8 9 5 4 4 3 4 13 26 35 21 30 3 21 26 36 38 32 24 4 10 26 59 43 45 12 8 1 0 0 0 1 10 15 1 0 0 0 1 2 6 4 9 7 18 37 28 12 2 2 12 5 18 16 1 0 0
0 0 0 0 0 0 0 0 0 0 0 0 0 0 0 0 2 21 34 26 26 24 36 32 5 7 4 5 3 4 4 4 4 3 2 3 4 15 14 20 3 22 5 11 15 13 10 24 3 7 8 20 56 72 42 45 26 2 0 0 0 2 0 0 0 0 0 0 0 6 2 28 15 18 31 17 1 0 23 38 38 36 19 0 0
0 0 0 0 0 0 0 0 0 0 0 0 0 0 0 0 3 9 7 25 30 33 36 34 6 1 3 2 4 3 3 4 4 3 2 3 3 2 2 2 3 2 2 3 2 5 3 15 29 12 4 6 4 14 32 19 12 22 6 3 0 21 42 0 0 0 0 0 0 0 0 0 0 17 21 32 3 7 7 17 48 38 43 0 0
0 0 0 0 0 0 0 0 0 0 0 0 0 0 0 0 0 0 0 0 16 9 28 38 29 11 5 0 1 2 2 2 4 4 1 2 3 2 2 2 3 4 2 2 3 4 4 24 22 16 15 16 8 5 10 24 28 29 24 11 4 6 34 46 30 12 1 0 0 0 0 0 0 0 8 0 0 1 2 29 28 32 34 6 1
0 0 0 0 0 0 0 0 0 0 0 0 0 0 0 0 0 0 0 0 0 0 0 0 0 4 26 15 0 0 0 0 2 3 0 0 3 2 1 1 2 2 3 3 3 3 3 2 4 6 8 21 24 35 30 21 18 20 18 4 6 12 40 64 65 43 25 13 1 0 0 0 0 0 0 0 0 0 7 33 31 17 0 0 0
0 0 0 0 0 0 0 0 0 0 0 0 0 0 0 0 0 0 0 0 0 0 0 0 0 0 0 0 1 22 0 0 0 0 0 0 2 2 10 7 4 2 3 2 2 2 2 2 2 1 17 8 13 23 36 33 32 30 22 4 5 14 64 79 75 69 54 30 28 4 0 0 0 0 1 19 28 37 42 42 24 19 12 0 0
0 0 0 0 0 0 0 0 0 0 0 0 0 0 0 0 0 0 0 0 0 0 0 0 0 0 0 0 0 0 0 0 0 0 0 0 0 2 0 11 21 18 6 3 3 3 2 2 4 4 1 1 6 16 42 48 42 46 44 36 16 4 28 48 65 66 47 72 50 24 9 5 3 9 0 9 21 27 29 35 20 38 44 37 15
Wind_Speed
25 32 30 29 26 26 26 25 24 22 22 23 22 20 19 19 20 21 20 18 16 14 13 12 12 13 13 13 13 12 10 8 9 9 12 13 13 14 15 16 17 17 17 18 21 20 20 18 17 17 17 18 19 20 21 19 19 19 18 18 19 21 nan nan nan 20 17 17 16 nan nan nan nan nan nan nan nan nan nan nan nan nan nan nan nan
31 32 30 29 26 26 25 25 25 23 22 22 22 21 20 20 21 23 22 20 17 15 14 13 13 14 15 14 14 14 11 9 9 10 11 13 14 14 15 15 16 17 16 15 19 19 19 19 18 17 17 18 19 20 20 19 20 19 20 21 21 22 nan nan 18 19 20 19 18 17 14 nan nan nan nan nan nan nan nan nan nan nan nan nan nan
35 32 29 29 27 25 25 26 26 24 22 22 22 22 22 21 21 23 23 22 20 17 15 14 14 14 16 16 16 15 13 12 11 11 11 12 16 15 15 17 17 18 16 15 17 17 17 19 18 17 18 18 19 20 20 19 20 18 19 20 21 nan 22 21 22 21 20 19 18 17 nan nan nan nan nan nan nan nan nan nan nan nan nan nan nan
34 33 31 29 29 25 25 25 26 24 23 22 23 23 23 23 23 23 23 22 21 20 16 16 15 15 17 18 17 16 16 15 14 12 13 13 15 16 15 16 18 20 14 14 16 16 17 18 20 18 17 18 19 19 20 20 19 18 19 19 20 21 21 21 20 19 18 19 17 nan nan nan nan nan nan nan nan nan nan nan nan nan nan nan nan
34 31 32 29 28 25 25 25 25 25 25 23 23 24 25 24 23 23 23 22 21 20 19 17 17 17 18 20 19 17 18 16 15 15 14 13 15 17 16 16 22 22 11 16 16 16 14 18 20 18 18 19 19 20 20 20 19 19 19 19 19 19 18 18 18 17 16 16 16 nan nan nan nan nan nan nan nan nan nan nan nan nan nan nan nan
32 33 32 28 28 26 25 25 25 26 25 25 24 24 25 24 24 23 23 23 21 20 19 18 18 18 19 22 21 19 20 18 17 16 17 14 14 17 17 18 19 20 16 16 18 14 14 18 20 19 19 19 20 20 20 20 19 18 19 19 18 17 18 18 17 15 13 13 14 nan nan nan nan nan nan nan nan nan nan nan nan nan nan nan nan
35 33 32 28 27 25 25 25 25 27 27 26 25 24 25 25 24 24 24 23 21 19 19 18 18 20 20 22 23 21 21 19 18 17 17 15 15 18 18 18 18 17 18 15 17 17 14 19 20 20 19 19 21 20 19 19 18 18 18 17 16 17 17 16 15 13 10 10 13 nan nan nan nan nan nan nan nan nan nan nan nan nan nan nan nan
32 33 30 28 27 26 26 26 26 28 28 27 26 25 25 25 25 25 25 23 22 21 21 19 19 20 22 22 23 22 22 20 19 20 17 18 18 19 19 17 19 18 17 16 16 17 16 19 21 20 19 19 20 19 19 19 18 18 18 16 16 16 18 20 18 16 14 14 13 nan nan nan nan nan nan nan nan nan nan nan nan nan nan nan nan
31 33 31 27 28 28 26 26 27 29 29 28 27 26 25 25 26 26 25 25 24 23 23 24 26 24 21 22 22 23 22 21 19 22 21 16 20 21 20 18 20 20 16 14 16 16 17 21 22 20 20 20 19 19 19 19 18 18 17 16 17 19 21 18 15 13 13 nan nan nan nan nan nan nan 11 12 nan nan nan nan nan nan nan nan nan
29 32 30 26 29 29 28 28 29 30 30 29 28 26 26 26 26 27 26 26 26 25 25 28 27 22 21 20 22 23 22 21 20 22 23 15 20 22 21 18 19 19 18 15 16 16 16 23 22 20 21 20 19 19 20 20 18 18 18 16 18 19 16 16 16 nan nan nan 23 20 18 17 nan nan 11 nan nan nan nan nan nan nan nan nan nan
27 28 30 28 31 31 30 30 31 31 30 29 29 27 27 25 26 28 27 26 27 27 27 26 26 23 20 20 22 23 21 21 21 21 23 19 21 23 21 18 18 18 18 18 14 16 16 22 22 21 20 20 20 20 20 20 19 18 19 18 18 17 16 nan nan nan nan nan nan 21 19 19 15 12 13 15 nan 15 16 nan nan nan nan nan nan
26 29 29 29 31 32 32 33 33 32 31 30 29 29 27 26 26 28 27 27 27 27 27 27 26 24 20 20 21 22 22 22 23 23 23 23 22 22 22 18 16 18 18 18 13 13 17 23 22 21 20 20 21 21 21 20 19 19 20 18 17 16 nan nan nan nan nan nan nan 20 18 17 15 12 16 15 nan nan nan nan nan nan nan nan nan
27 29 32 32 34 35 34 35 34 32 31 30 30 29 28 26 26 27 28 28 28 26 26 28 27 24 23 20 20 23 23 23 23 24 25 24 22 19 22 19 15 17 18 17 16 14 20 23 23 22 20 21 21 22 21 21 20 20 20 18 16 nan nan nan nan nan nan nan nan 21 20 nan nan nan nan nan nan nan nan nan nan nan nan nan nan
31 32 38 39 39 34 35 31 32 32 31 30 30 31 30 27 26 26 28 28 27 26 26 27 27 26 24 22 22 24 26 24 23 24 26 23 23 20 21 19 17 17 17 21 14 20 22 23 24 22 22 22 22 22 21 22 21 20 20 17 16 nan nan nan nan nan nan 25 23 nan nan nan nan nan nan nan nan nan 17 nan nan nan nan nan nan
34 43 43 41 38 36 29 27 31 32 32 31 31 32 31 28 26 26 27 28 27 27 26 26 26 26 24 23 23 23 26 26 26 28 26 23 24 22 21 20 17 17 18 20 16 23 21 23 24 24 24 24 24 23 23 22 22 22 20 18 19 nan nan nan nan nan nan 26 nan 23 nan nan 20 20 nan nan nan 17 17 nan nan nan nan nan nan
48 44 43 36 33 33 29 28 33 33 33 32 31 32 32 29 26 25 26 27 27 27 26 26 26 26 24 23 25 26 26 26 27 28 28 25 25 24 22 20 18 18 18 20 19 24 22 23 25 26 27 26 25 25 23 23 23 23 22 22 nan nan nan nan nan nan nan nan nan 25 nan nan 23 nan nan 18 18 17 nan 18 17 nan nan nan nan
42 42 39 38 37 33 31 31 35 35 34 32 31 31 32 31 27 27 26 26 27 27 27 26 27 27 25 24 26 27 26 26 26 27 28 27 27 25 23 22 19 19 19 21 20 24 22 22 25 25 27 27 27 26 25 24 24 24 24 nan nan nan nan nan nan nan nan nan nan 25 nan nan 24 23 20 19 17 17 17 17 18 17 nan nan nan
39 40 39 40 37 35 35 35 36 35 34 32 32 32 33 32 29 28 26 26 28 28 28 27 27 27 27 26 26 26 26 26 25 27 28 27 25 25 24 22 19 21 20 22 19 24 23 22 25 26 27 28 28 27 26 25 26 27 26 nan nan nan nan nan nan 25 nan 27 nan 26 nan 23 24 23 21 19 18 18 18 20 20 19 21 nan nan
38 39 39 39 37 35 36 38 35 37 34 34 34 34 33 33 31 30 28 27 28 29 28 28 27 28 28 28 28 27 27 27 26 27 27 27 25 24 24 22 21 22 20 22 19 24 24 23 25 27 28 28 28 28 28 28 28 28 nan nan nan nan nan nan nan 26 27 nan nan 27 27 25 24 23 22 20 22 21 21 20 20 19 20 nan nan
38 41 41 42 36 33 37 37 37 37 36 35 36 37 35 35 34 32 30 29 28 29 29 29 28 28 29 29 30 30 28 29 28 28 27 27 25 25 23 22 23 24 21 21 22 24 24 24 25 26 28 28 30 30 31 31 nan nan nan nan nan nan nan nan 27 26 28 27 nan 30 28 27 25 24 22 22 23 23 22 20 20 21 23 21 19
42 41 42 42 41 36 40 37 36 35 34 36 38 38 37 38 36 33 31 30 29 29 30 30 30 29 nan 31 31 30 29 29 28 29 28 28 25 23 23 23 25 25 23 21 22 23 24 25 25 26 28 30 31 33 34 nan nan nan nan nan nan nan nan nan 26 26 30 27 31 30 29 29 26 25 23 23 23 23 22 22 23 nan 23 22 nan
48 44 41 41 43 38 37 38 36 30 30 35 38 37 39 39 37 35 33 31 31 31 31 31 29 31 nan 32 32 31 30 29 28 29 29 28 26 24 24 25 25 25 23 20 23 22 24 24 25 26 28 31 34 35 nan nan nan nan nan nan nan nan nan nan nan 28 31 32 nan 31 30 29 29 27 24 24 24 24 24 24 24 24 24 24 nan
52 51 46 43 42 41 40 34 34 33 32 33 37 38 39 39 38 36 34 32 32 31 32 31 31 32 31 32 31 31 31 30 30 30 29 29 28 27 27 25 25 25 25 21 22 23 25 26 27 27 30 34 34 nan nan nan nan nan nan nan nan nan nan nan nan 30 32 35 33 33 29 32 31 29 26 25 25 25 25 26 26 26 nan nan nan
nan nan nan nan 43 42 42 41 33 31 33 35 37 38 39 38 37 36 35 34 34 32 32 32 32 32 32 32 32 31 32 32 30 28 28 33 33 31 31 29 27 28 29 28 26 24 26 28 28 26 27 nan nan nan nan nan nan 34 nan nan nan nan nan nan nan 34 34 37 35 34 29 33 32 30 28 26 26 26 26 28 nan 28 nan nan nan
nan nan nan nan nan 46 43 41 43 34 34 35 34 34 36 37 35 35 34 34 35 34 33 33 33 33 33 32 31 nan 32 33 34 34 34 34 35 34 33 32 31 31 29 28 28 29 30 27 29 28 28 29 nan nan nan nan nan nan nan nan nan nan 31 31 34 34 33 nan nan nan 34 35 33 32 29 27 26 27 28 nan 28 nan nan nan nan
nan nan nan nan nan nan 46 41 40 39 38 35 33 31 34 35 34 34 35 35 35 35 33 34 33 nan 35 33 33 nan 33 nan 36 35 34 34 34 34 33 32 32 32 29 31 29 30 27 26 31 28 28 30 28 nan nan nan nan nan nan nan nan nan nan nan nan nan nan nan nan nan nan 36 35 33 31 28 28 nan nan nan nan nan nan nan nan
nan nan nan nan nan nan nan nan 41 36 37 40 36 34 35 32 35 36 35 nan nan 35 34 34 35 35 36 34 35 nan nan nan 36 36 35 nan 34 34 33 33 32 31 31 31 30 30 28 29 30 28 29 30 29 nan nan nan nan nan nan nan nan nan nan nan nan nan nan nan nan nan nan nan nan 34 32 32 29 28 28 nan nan nan nan nan nan
nan nan nan nan nan nan nan nan 47 43 37 38 41 41 36 34 34 35 34 35 nan nan nan nan 37 38 38 nan nan nan nan nan 36 36 36 nan nan nan nan nan nan nan nan nan nan 30 29 29 29 29 28 27 28 30 nan nan nan nan nan nan nan nan nan nan nan nan nan nan nan nan nan nan nan nan nan nan nan nan nan nan nan nan nan nan nan
nan nan nan nan nan nan nan nan nan 46 44 40 42 42 43 39 36 35 35 37 33 nan nan nan nan 38 39 39 nan nan nan nan nan nan nan nan nan nan nan nan nan nan nan nan nan nan 31 30 nan nan nan nan nan 30 30 nan nan nan nan nan nan nan nan nan nan nan nan nan nan nan nan nan nan nan nan nan nan nan nan nan nan nan nan nan nan
nan nan nan nan nan nan nan nan nan nan 44 44 42 42 42 43 43 38 33 33 31 30 nan nan nan nan 40 40 41 nan nan nan nan nan nan nan nan nan nan nan nan nan nan nan nan nan nan nan nan nan nan nan nan nan 29 nan nan nan nan nan nan nan nan nan nan nan nan nan nan nan nan nan nan nan nan nan nan nan nan nan nan nan nan nan nan
nan nan nan nan nan nan nan nan nan nan nan 46 44 nan 44 43 41 39 37 30 29 nan nan nan nan nan nan 39 41 nan nan nan nan nan nan nan nan nan nan nan nan nan nan nan nan nan nan nan nan nan nan nan nan nan nan nan nan nan nan nan nan nan nan nan nan nan nan nan nan nan nan nan nan nan nan nan nan nan nan nan nan nan nan nan nan
nan nan nan nan nan nan nan nan nan nan nan nan nan nan nan nan 40 38 41 34 33 42 nan nan nan nan nan nan 40 nan nan nan nan nan nan nan nan nan nan nan nan nan nan nan nan nan nan nan nan nan nan nan nan nan nan nan nan nan nan nan nan nan nan nan nan nan nan nan nan nan nan nan nan nan nan nan nan nan nan nan nan nan nan nan nan
nan nan nan nan nan nan nan nan nan nan nan nan nan nan nan nan nan 38 40 40 41 46 nan nan 41 nan nan nan nan nan nan nan nan nan nan nan nan nan nan nan nan nan nan nan nan nan nan nan nan nan nan nan nan nan nan nan nan nan nan nan nan nan nan nan nan nan nan nan nan nan nan nan nan nan nan nan nan nan nan nan nan nan nan nan nan
nan nan nan nan nan nan nan nan nan nan nan nan nan nan nan nan nan nan nan 43 44 46 46 nan 38 37 37 34 35 39 nan nan nan nan nan nan nan nan nan nan nan nan nan nan nan nan nan nan nan nan nan nan nan nan nan nan nan nan nan nan nan nan nan nan nan nan nan nan nan nan nan nan nan nan nan nan nan nan nan nan nan nan nan nan nan
nan nan nan nan nan nan nan nan nan nan nan nan nan nan nan nan nan nan nan nan 47 46 47 45 41 40 36 36 36 33 nan nan 41 nan nan nan nan 44 nan nan nan nan nan nan nan nan nan nan nan nan nan nan nan nan nan nan nan nan nan nan nan nan nan nan nan nan nan nan nan nan nan nan nan nan nan nan nan nan nan nan nan nan nan nan nan
nan nan nan nan nan nan nan nan nan nan nan nan nan nan nan nan nan nan nan nan nan nan 53 nan nan 43 nan 39 39 36 33 nan nan 45 47 50 49 46 44 44 nan nan nan nan nan nan nan nan nan nan nan nan nan nan nan nan nan nan nan nan nan nan nan nan nan nan nan nan nan nan nan nan nan nan nan nan nan nan nan nan nan nan nan nan nan
nan nan nan nan nan nan nan nan nan nan nan nan nan nan nan nan nan nan nan nan nan nan nan 55 nan nan nan 46 43 39 nan 40 43 47 49 nan 45 47 47 46 45 46 nan nan nan nan nan nan nan nan nan nan nan nan nan nan nan nan nan nan nan nan nan nan nan nan nan nan nan nan nan nan nan nan nan nan nan nan nan nan nan nan nan nan nan
nan nan nan nan nan nan nan nan nan nan nan nan nan nan nan nan nan nan nan nan nan nan nan nan 55 nan nan nan nan nan nan nan nan 43 49 46 44 nan nan 47 49 48 48 nan nan nan nan nan nan nan nan nan nan nan nan nan nan nan nan nan nan nan nan nan nan nan nan nan nan nan nan nan nan nan nan nan nan nan nan nan nan nan nan nan nan
nan nan nan nan nan nan nan nan nan nan nan nan nan nan nan nan nan nan nan nan nan nan nan nan nan nan nan nan nan nan nan nan nan nan nan 47 43 36 40 48 52 50 49 nan nan nan nan nan nan nan nan nan nan nan nan nan nan nan nan nan nan nan nan nan nan nan nan nan nan nan nan nan nan nan nan nan nan nan nan nan nan nan nan nan nan
nan nan nan nan nan nan nan nan nan nan nan nan nan nan nan nan nan nan nan nan nan nan nan nan nan nan nan nan nan nan nan nan nan nan nan 46 44 41 42 nan 49 nan nan nan nan nan nan nan nan nan nan nan nan nan nan nan nan nan nan nan nan nan nan nan nan nan nan nan nan nan nan nan nan nan nan nan nan nan nan nan nan nan nan nan nan
nan nan nan nan nan nan nan nan nan nan nan nan nan nan nan nan nan nan nan nan nan nan nan nan nan nan nan nan nan nan nan nan nan nan nan nan nan nan nan 59 55 51 49 nan nan nan nan nan nan nan nan nan nan nan nan nan nan nan nan nan nan nan nan nan nan nan nan nan nan nan nan nan nan nan nan nan nan nan nan nan nan nan nan nan nan
nan nan nan nan nan nan nan nan nan nan nan nan nan nan nan nan nan nan nan nan nan nan nan nan nan nan nan nan nan nan nan nan nan nan nan nan nan nan nan nan nan 52 52 53 49 48 49 nan nan nan nan nan nan nan nan nan nan nan nan nan nan nan nan nan nan nan nan nan nan nan nan nan nan nan nan nan nan nan nan nan nan nan nan nan nan
nan nan nan nan nan nan nan nan nan nan nan nan nan nan nan nan nan nan nan nan nan nan nan nan nan nan nan nan nan nan nan nan nan nan nan nan nan nan nan nan nan nan 57 61 57 52 43 nan nan nan nan nan nan nan nan nan nan nan nan nan nan nan nan nan nan nan nan nan nan nan nan nan nan nan nan nan nan nan nan nan nan nan nan nan nan
nan nan nan nan nan nan nan nan nan nan nan nan nan nan nan nan nan nan nan nan nan nan nan nan nan nan nan nan nan nan nan nan nan nan nan nan nan nan nan nan nan nan nan nan nan nan 51 nan nan nan nan nan nan nan nan nan nan nan nan nan nan nan nan nan nan nan nan nan nan nan nan nan nan nan nan nan nan nan nan nan nan nan nan nan nan
nan nan nan nan nan nan nan nan nan nan nan nan nan nan nan nan nan nan nan nan nan nan nan nan nan nan nan nan nan nan nan nan nan nan nan nan nan nan nan nan nan nan nan nan nan nan nan nan nan nan nan nan nan nan nan nan nan nan nan nan nan nan nan nan nan nan nan nan nan nan nan nan nan nan nan nan nan nan nan nan nan nan nan nan nan
nan nan nan nan nan nan nan nan nan nan nan nan nan nan nan nan nan nan nan nan nan nan nan nan nan nan nan nan nan nan nan nan nan nan nan nan nan nan nan nan nan nan nan nan nan nan nan nan nan nan nan nan nan nan nan nan nan nan nan nan nan nan nan nan nan nan nan nan nan nan nan nan nan nan nan nan nan nan nan nan nan nan nan nan nan
nan nan nan nan nan nan nan nan nan nan nan nan nan nan nan nan nan nan nan nan nan nan nan nan nan nan nan nan nan nan nan nan nan nan nan nan nan nan nan nan nan nan nan nan nan nan nan nan nan nan nan nan nan nan nan nan nan nan nan nan nan nan nan nan nan nan nan nan nan nan nan nan nan nan nan nan nan nan nan nan nan nan nan nan nan
nan nan nan nan nan nan nan nan nan nan nan nan nan nan nan nan nan nan nan nan nan nan nan nan nan nan nan nan nan nan nan nan nan nan nan nan nan nan nan nan nan nan nan nan nan nan nan nan nan nan nan nan nan nan nan nan nan nan nan nan nan nan nan nan nan nan nan nan nan nan nan nan nan nan nan nan nan nan nan nan nan nan nan nan nan
nan nan nan nan nan nan nan nan nan nan nan nan nan nan nan nan nan nan nan nan nan nan nan nan nan nan nan nan nan nan nan nan nan nan nan nan nan nan nan nan nan nan nan nan nan nan nan nan nan nan nan nan nan nan nan nan nan nan nan nan nan nan nan nan nan nan nan nan nan nan nan nan nan nan nan nan nan nan nan nan nan nan nan nan nan
nan nan nan nan nan nan nan nan nan nan nan nan nan nan nan nan nan nan nan nan nan nan nan nan nan nan nan nan nan nan nan nan nan nan nan nan nan nan nan nan nan nan nan nan nan nan nan nan nan nan nan nan nan nan nan nan nan nan nan nan nan nan nan nan nan nan nan nan nan nan nan nan nan nan nan nan nan nan nan nan nan nan nan nan nan
nan nan nan nan nan nan nan nan nan nan nan nan nan nan nan nan nan nan nan nan nan nan nan nan nan nan nan nan nan nan nan nan nan nan nan nan nan nan nan nan nan nan nan nan nan nan nan nan nan nan nan nan nan nan nan nan nan nan nan nan nan nan nan nan nan nan nan nan nan nan nan nan nan nan nan nan nan nan nan nan nan nan nan nan nan
Wind_Direction
245 256 255 267 273 278 279 279 280 281 280 278 279 276 268 261 259 256 254 257 259 260 260 255 248 250 250 249 253 261 270 284 291 287 282 279 278 282 292 293 295 292 293 297 297 292 282 272 263 254 247 241 237 235 236 233 232 231 228 218 226 233 nan nan nan 240 241 244 245 nan nan nan nan nan nan nan nan nan nan nan nan nan nan nan nan
242 255 255 261 269 275 276 274 277 279 278 278 279 279 273 264 255 252 250 250 252 255 257 257 252 252 253 249 251 261 270 282 286 281 284 280 280 281 290 295 294 292 295 297 296 288 282 272 265 256 247 244 239 237 238 237 233 230 225 225 230 236 nan nan 235 233 236 241 242 241 242 nan nan nan nan nan nan nan nan nan nan nan nan nan nan
247 250 253 261 268 273 270 273 275 277 277 278 278 274 269 262 254 250 248 245 246 247 251 254 255 254 255 252 249 256 264 274 279 288 289 283 281 281 284 297 300 299 297 298 285 282 280 274 266 258 250 243 240 239 239 238 239 235 232 231 233 nan 237 234 235 237 240 246 244 242 nan nan nan nan nan nan nan nan nan nan nan nan nan nan nan
244 245 249 256 268 268 267 270 273 275 273 269 268 268 266 262 256 251 247 244 242 243 245 253 255 255 254 255 249 252 260 270 279 282 287 286 281 281 283 289 295 287 290 293 287 280 274 274 266 256 247 241 241 242 244 244 240 238 236 235 236 237 238 240 242 245 247 248 245 nan nan nan nan nan nan nan nan nan nan nan nan nan nan nan nan
245 246 250 252 256 262 267 269 270 272 269 267 264 264 265 262 259 255 251 246 242 240 238 240 257 257 256 254 252 250 256 261 268 276 280 281 280 280 280 285 292 290 302 296 284 275 277 272 262 253 244 241 241 244 247 245 238 239 242 241 241 241 245 244 244 246 255 261 262 nan nan nan nan nan nan nan nan nan nan nan nan nan nan nan nan
246 246 247 251 254 259 266 267 268 270 267 264 261 261 263 263 261 258 254 249 244 243 240 236 250 257 255 256 253 251 255 256 262 270 277 278 280 277 278 284 291 297 297 289 288 274 261 269 260 251 244 241 241 243 246 246 242 240 241 243 239 239 235 233 236 246 254 268 244 nan nan nan nan nan nan nan nan nan nan nan nan nan nan nan nan
245 243 247 251 250 256 268 264 265 267 265 263 260 259 262 263 261 258 254 251 247 245 245 244 244 256 256 253 253 253 255 256 258 264 277 276 274 273 275 281 285 285 288 286 280 269 264 267 260 252 243 242 243 244 247 247 245 243 241 238 233 233 232 234 243 253 255 235 204 nan nan nan nan nan nan nan nan nan nan nan nan nan nan nan nan
237 245 248 249 250 258 267 265 263 265 264 262 260 258 260 263 262 257 255 253 247 249 250 248 244 249 248 251 251 254 255 254 257 258 261 269 270 269 269 267 280 278 278 280 274 275 278 266 257 251 245 244 243 247 248 248 246 244 238 236 234 230 225 220 226 218 220 206 202 nan nan nan nan nan nan nan nan nan nan nan nan nan nan nan nan
236 246 246 248 251 267 266 263 263 264 263 262 260 258 258 261 262 259 253 250 246 248 250 247 244 245 246 247 249 253 256 254 254 261 251 250 266 265 266 267 278 280 278 276 271 263 263 264 257 252 245 246 245 247 248 247 246 245 237 236 231 225 221 223 220 230 210 nan nan nan nan nan nan nan 266 277 nan nan nan nan nan nan nan nan nan
239 250 247 246 249 268 266 263 261 263 263 261 259 257 257 258 261 259 254 251 247 240 250 252 255 253 248 247 247 252 254 254 255 262 265 264 263 264 262 263 272 278 279 272 273 258 256 265 260 251 245 246 247 246 245 245 246 246 238 232 229 227 224 220 217 nan nan nan 227 229 237 250 nan nan 265 nan nan nan nan nan nan nan nan nan nan
234 246 249 245 256 264 264 263 261 260 262 261 259 255 254 256 258 258 254 251 247 243 246 256 257 256 253 250 249 253 250 255 255 258 269 268 261 259 260 257 266 270 274 262 263 260 260 261 260 253 247 246 248 245 244 245 246 246 238 231 229 223 225 nan nan nan nan nan nan 230 241 260 243 242 276 275 nan 275 271 nan nan nan nan nan nan
233 243 250 244 259 264 260 259 259 258 260 259 259 256 252 252 256 256 255 251 248 244 243 251 258 257 254 251 253 253 252 252 254 258 259 260 259 257 258 255 259 266 268 272 270 272 254 256 259 257 250 247 249 247 245 245 245 246 240 234 229 223 nan nan nan nan nan nan nan 237 240 248 252 261 285 279 nan nan nan nan nan nan nan nan nan
233 240 245 247 251 249 248 253 254 256 256 257 257 256 250 248 250 255 254 252 249 245 244 247 252 257 255 250 250 252 250 251 254 258 263 264 265 254 254 253 254 260 266 271 271 257 254 255 259 258 253 248 248 247 245 245 245 245 243 238 230 nan nan nan nan nan nan nan nan 236 237 nan nan nan nan nan nan nan nan nan nan nan nan nan nan
226 235 241 236 239 254 247 244 252 255 255 254 254 254 249 245 248 253 254 253 250 248 245 246 248 250 255 254 242 239 250 245 252 254 261 264 264 255 253 252 252 257 259 258 255 256 249 252 256 257 254 250 248 246 245 243 245 245 243 239 230 nan nan nan nan nan nan 225 229 nan nan nan nan nan nan nan nan nan 280 nan nan nan nan nan nan
224 233 233 237 242 246 256 253 256 254 254 253 252 253 253 248 247 250 253 253 250 249 248 247 247 247 247 248 250 248 240 238 242 246 256 254 261 257 250 251 248 253 258 263 255 254 245 249 254 256 255 253 250 246 243 243 244 244 241 234 227 nan nan nan nan nan nan 226 nan 232 nan nan 259 267 nan nan nan 281 278 nan nan nan nan nan nan
228 233 234 234 250 251 248 250 249 251 252 253 251 254 255 253 248 246 250 252 252 250 249 248 248 247 244 243 244 249 246 241 239 240 245 253 255 254 247 244 244 250 254 256 257 251 246 250 256 257 255 252 249 245 242 242 243 241 234 230 nan nan nan nan nan nan nan nan nan 231 nan nan 263 nan nan 274 278 279 nan 273 277 nan nan nan nan
230 240 239 236 241 246 246 244 241 248 248 252 250 253 253 253 249 244 245 248 250 248 245 245 247 246 242 242 244 247 248 245 242 239 240 245 250 250 247 244 242 248 255 255 257 257 253 254 256 256 255 252 250 246 245 242 241 239 233 nan nan nan nan nan nan nan nan nan nan 235 nan nan 260 266 267 272 276 276 271 271 275 274 nan nan nan
229 240 238 241 239 232 236 238 240 238 240 245 250 250 251 252 249 244 242 246 248 249 245 244 244 245 243 242 245 248 248 246 243 240 241 245 250 250 250 248 247 249 256 260 255 258 258 254 254 252 251 251 250 249 247 246 240 237 235 nan nan nan nan nan nan 221 nan 239 nan 236 nan 250 265 266 270 270 272 272 273 269 275 274 276 nan nan
231 236 237 239 242 240 232 234 236 238 238 236 239 245 251 252 252 247 244 245 247 250 250 247 245 248 245 243 244 245 245 246 245 244 244 246 249 252 252 250 250 254 256 258 259 258 257 253 250 250 250 249 248 248 247 244 243 242 nan nan nan nan nan nan nan 226 232 nan nan 238 246 261 263 266 264 267 265 267 270 270 271 274 275 nan nan
234 230 233 230 235 239 240 239 235 236 232 236 237 238 244 250 250 248 246 245 248 251 252 250 247 247 247 246 244 243 245 242 247 245 248 248 250 249 252 252 253 257 259 254 252 256 255 251 248 251 252 249 246 241 241 241 nan nan nan nan nan nan nan nan 232 230 234 234 nan 240 252 264 265 262 260 261 263 266 267 266 266 270 274 280 281
233 232 232 232 227 243 243 239 239 237 235 234 236 238 241 248 246 249 249 246 247 252 252 252 248 246 nan 246 245 242 240 242 244 241 247 244 249 253 254 252 256 259 258 259 252 255 254 251 250 252 251 249 246 242 239 nan nan nan nan nan nan nan nan nan 236 236 240 233 240 246 259 263 264 263 261 261 262 263 265 266 269 nan 274 274 nan
234 233 233 231 229 236 245 241 240 241 238 234 234 236 238 244 245 243 244 245 244 247 248 246 249 241 nan 245 241 239 239 240 243 245 241 244 249 255 257 255 257 261 261 255 262 256 256 255 254 254 252 249 247 238 nan nan nan nan nan nan nan nan nan nan nan 241 244 244 nan 245 258 262 263 262 259 259 259 262 263 266 267 268 270 274 nan
238 238 234 231 232 232 241 244 241 243 242 238 235 236 240 241 244 244 243 247 245 244 243 248 244 244 243 243 241 240 239 240 243 244 243 248 248 254 257 257 257 259 260 260 255 258 259 258 257 252 252 249 241 nan nan nan nan nan nan nan nan nan nan nan nan 240 244 250 249 255 255 263 262 260 257 256 258 260 263 267 269 271 nan nan nan
nan nan nan nan 234 234 233 235 242 247 243 237 233 235 236 242 243 244 243 244 245 243 242 243 245 246 245 243 242 240 242 240 244 254 252 242 243 250 254 256 256 254 251 247 245 247 253 254 255 253 247 nan nan nan nan nan nan 238 nan nan nan nan nan nan nan 243 242 248 249 259 260 261 263 261 258 260 259 263 264 266 nan 273 nan nan nan
nan nan nan nan nan 237 236 234 229 240 248 241 236 235 235 237 241 244 244 243 244 245 241 242 241 245 248 245 244 nan 242 242 244 243 243 242 242 238 245 246 248 250 255 246 243 244 240 239 246 243 241 247 nan nan nan nan nan nan nan nan nan nan 240 241 245 244 245 nan nan nan 262 261 261 261 260 259 262 263 265 nan 270 nan nan nan nan
nan nan nan nan nan nan 239 238 235 231 233 244 244 240 238 234 238 242 245 246 245 246 243 242 242 nan 246 247 246 nan 242 nan 245 244 242 244 244 242 240 242 246 247 246 246 243 245 248 248 249 244 240 247 241 nan nan nan nan nan nan nan nan nan nan nan nan nan nan nan nan nan nan 265 265 266 264 262 262 nan nan nan nan nan nan nan nan
nan nan nan nan nan nan nan nan 234 229 228 229 236 243 244 242 241 241 243 nan nan 244 243 242 243 244 246 246 247 nan nan nan 245 244 243 nan 244 245 244 246 246 248 248 245 246 246 245 246 248 248 245 241 245 nan nan nan nan nan nan nan nan nan nan nan nan nan nan nan nan nan nan nan nan 268 267 267 265 265 268 nan nan nan nan nan nan
nan nan nan nan nan nan nan nan 227 225 225 230 228 230 243 247 245 241 239 242 nan nan nan nan 243 244 245 nan nan nan nan nan 247 246 243 nan nan nan nan nan nan nan nan nan nan 248 247 246 247 249 250 249 248 248 nan nan nan nan nan nan nan nan nan nan nan nan nan nan nan nan nan nan nan nan nan nan nan nan nan nan nan nan nan nan nan
nan nan nan nan nan nan nan nan nan 221 221 222 230 232 233 237 245 242 240 240 240 nan nan nan nan 243 243 243 nan nan nan nan nan nan nan nan nan nan nan nan nan nan nan nan nan nan 250 249 nan nan nan nan nan 250 251 nan nan nan nan nan nan nan nan nan nan nan nan nan nan nan nan nan nan nan nan nan nan nan nan nan nan nan nan nan nan
nan nan nan nan nan nan nan nan nan nan 221 221 228 231 237 235 236 239 242 244 242 249 nan nan nan nan 242 240 241 nan nan nan nan nan nan nan nan nan nan nan nan nan nan nan nan nan nan nan nan nan nan nan nan nan 254 nan nan nan nan nan nan nan nan nan nan nan nan nan nan nan nan nan nan nan nan nan nan nan nan nan nan nan nan nan nan
nan nan nan nan nan nan nan nan nan nan nan 224 227 nan 234 235 235 236 238 247 250 nan nan nan nan nan nan 240 240 nan nan nan nan nan nan nan nan nan nan nan nan nan nan nan nan nan nan nan nan nan nan nan nan nan nan nan nan nan nan nan nan nan nan nan nan nan nan nan nan nan nan nan nan nan nan nan nan nan nan nan nan nan nan nan nan
nan nan nan nan nan nan nan nan nan nan nan nan nan nan nan nan 233 237 239 236 239 242 nan nan nan nan nan nan 239 nan nan nan nan nan nan nan nan nan nan nan nan nan nan nan nan nan nan nan nan nan nan nan nan nan nan nan nan nan nan nan nan nan nan nan nan nan nan nan nan nan nan nan nan nan nan nan nan nan nan nan nan nan nan nan nan
nan nan nan nan nan nan nan nan nan nan nan nan nan nan nan nan nan 233 238 234 231 234 nan nan 247 nan nan nan nan nan nan nan nan nan nan nan nan nan nan nan nan nan nan nan nan nan nan nan nan nan nan nan nan nan nan nan nan nan nan nan nan nan nan nan nan nan nan nan nan nan nan nan nan nan nan nan nan nan nan nan nan nan nan nan nan
nan nan nan nan nan nan nan nan nan nan nan nan nan nan nan nan nan nan nan 233 236 233 238 nan 249 245 245 252 257 246 nan nan nan nan nan nan nan nan nan nan nan nan nan nan nan nan nan nan nan nan nan nan nan nan nan nan nan nan nan nan nan nan nan nan nan nan nan nan nan nan nan nan nan nan nan nan nan nan nan nan nan nan nan nan nan
nan nan nan nan nan nan nan nan nan nan nan nan nan nan nan nan nan nan nan nan 231 234 234 239 248 252 252 252 248 244 nan nan 238 nan nan nan nan 245 nan nan nan nan nan nan nan nan nan nan nan nan nan nan nan nan nan nan nan nan nan nan nan nan nan nan nan nan nan nan nan nan nan nan nan nan nan nan nan nan nan nan nan nan nan nan nan
nan nan nan nan nan nan nan nan nan nan nan nan nan nan nan nan nan nan nan nan nan nan 228 nan nan 247 nan 249 232 229 242 nan nan 241 237 238 244 244 245 246 nan nan nan nan nan nan nan nan nan nan nan nan nan nan nan nan nan nan nan nan nan nan nan nan nan nan nan nan nan nan nan nan nan nan nan nan nan nan nan nan nan nan nan nan nan
nan nan nan nan nan nan nan nan nan nan nan nan nan nan nan nan nan nan nan nan nan nan nan 225 nan nan nan 240 238 234 nan 245 242 237 240 nan 238 245 244 247 245 248 nan nan nan nan nan nan nan nan nan nan nan nan nan nan nan nan nan nan nan nan nan nan nan nan nan nan nan nan nan nan nan nan nan nan nan nan nan nan nan nan nan nan nan
nan nan nan nan nan nan nan nan nan nan nan nan nan nan nan nan nan nan nan nan nan nan nan nan 221 nan nan nan nan nan nan nan nan 233 238 238 232 nan nan 243 246 246 249 nan nan nan nan nan nan nan nan nan nan nan nan nan nan nan nan nan nan nan nan nan nan nan nan nan nan nan nan nan nan nan nan nan nan nan nan nan nan nan nan nan nan
nan nan nan nan nan nan nan nan nan nan nan nan nan nan nan nan nan nan nan nan nan nan nan nan nan nan nan nan nan nan nan nan nan nan nan 238 232 233 231 237 241 242 244 nan nan nan nan nan nan nan nan nan nan nan nan nan nan nan nan nan nan nan nan nan nan nan nan nan nan nan nan nan nan nan nan nan nan nan nan nan nan nan nan nan nan
nan nan nan nan nan nan nan nan nan nan nan nan nan nan nan nan nan nan nan nan nan nan nan nan nan nan nan nan nan nan nan nan nan nan nan 239 233 237 238 nan 239 nan nan nan nan nan nan nan nan nan nan nan nan nan nan nan nan nan nan nan nan nan nan nan nan nan nan nan nan nan nan nan nan nan nan nan nan nan nan nan nan nan nan nan nan
nan nan nan nan nan nan nan nan nan nan nan nan nan nan nan nan nan nan nan nan nan nan nan nan nan nan nan nan nan nan nan nan nan nan nan nan nan nan nan 233 236 239 243 nan nan nan nan nan nan nan nan nan nan nan nan nan nan nan nan nan nan nan nan nan nan nan nan nan nan nan nan nan nan nan nan nan nan nan nan nan nan nan nan nan nan
nan nan nan nan nan nan nan nan nan nan nan nan nan nan nan nan nan nan nan nan nan nan nan nan nan nan nan nan nan nan nan nan nan nan nan nan nan nan nan nan nan 233 236 240 241 242 242 nan nan nan nan nan nan nan nan nan nan nan nan nan nan nan nan nan nan nan nan nan nan nan nan nan nan nan nan nan nan nan nan nan nan nan nan nan nan
nan nan nan nan nan nan nan nan nan nan nan nan nan nan nan nan nan nan nan nan nan nan nan nan nan nan nan nan nan nan nan nan nan nan nan nan nan nan nan nan nan nan 228 233 232 233 241 nan nan nan nan nan nan nan nan nan nan nan nan nan nan nan nan nan nan nan nan nan nan nan nan nan nan nan nan nan nan nan nan nan nan nan nan nan nan
nan nan nan nan nan nan nan nan nan nan nan nan nan nan nan nan nan nan nan nan nan nan nan nan nan nan nan nan nan nan nan nan nan nan nan nan nan nan nan nan nan nan nan nan nan nan 227 nan nan nan nan nan nan nan nan nan nan nan nan nan nan nan nan nan nan nan nan nan nan nan nan nan nan nan nan nan nan nan nan nan nan nan nan nan nan
nan nan nan nan nan nan nan nan nan nan nan nan nan nan nan nan nan nan nan nan nan nan nan nan nan nan nan nan nan nan nan nan nan nan nan nan nan nan nan nan nan nan nan nan nan nan nan nan nan nan nan nan nan nan nan nan nan nan nan nan nan nan nan nan nan nan nan nan nan nan nan nan nan nan nan nan nan nan nan nan nan nan nan nan nan
nan nan nan nan nan nan nan nan nan nan nan nan nan nan nan nan nan nan nan nan nan nan nan nan nan nan nan nan nan nan nan nan nan nan nan nan nan nan nan nan nan nan nan nan nan nan nan nan nan nan nan nan nan nan nan nan nan nan nan nan nan nan nan nan nan nan nan nan nan nan nan nan nan nan nan nan nan nan nan nan nan nan nan nan nan
nan nan nan nan nan nan nan nan nan nan nan nan nan nan nan nan nan nan nan nan nan nan nan nan nan nan nan nan nan nan nan nan nan nan nan nan nan nan nan nan nan nan nan nan nan nan nan nan nan nan nan nan nan nan nan nan nan nan nan nan nan nan nan nan nan nan nan nan nan nan nan nan nan nan nan nan nan nan nan nan nan nan nan nan nan
nan nan nan nan nan nan nan nan nan nan nan nan nan nan nan nan nan nan nan nan nan nan nan nan nan nan nan nan nan nan nan nan nan nan nan nan nan nan nan nan nan nan nan nan nan nan nan nan nan nan nan nan nan nan nan nan nan nan nan nan nan nan nan nan nan nan nan nan nan nan nan nan nan nan nan nan nan nan nan nan nan nan nan nan nan
nan nan nan nan nan nan nan nan nan nan nan nan nan nan nan nan nan nan nan nan nan nan nan nan nan nan nan nan nan nan nan nan nan nan nan nan nan nan nan nan nan nan nan nan nan nan nan nan nan nan nan nan nan nan nan nan nan nan nan nan nan nan nan nan nan nan nan nan nan nan nan nan nan nan nan nan nan nan nan nan nan nan nan nan nan
nan nan nan nan nan nan nan nan nan nan nan nan nan nan nan nan nan nan nan nan nan nan nan nan nan nan nan nan nan nan nan nan nan nan nan nan nan nan nan nan nan nan nan nan nan nan nan nan nan nan nan nan nan nan nan nan nan nan nan nan nan nan nan nan nan nan nan nan nan nan nan nan nan nan nan nan nan nan nan nan nan nan nan nan nan
nan nan nan nan nan nan nan nan nan nan nan nan nan nan nan nan nan nan nan nan nan nan nan nan nan nan nan nan nan nan nan nan nan nan nan nan nan nan nan nan nan nan nan nan nan nan nan nan nan nan nan nan nan nan nan nan nan nan nan nan nan nan nan nan nan nan nan nan nan nan nan nan nan nan nan nan nan nan nan nan nan nan nan nan nan